Regional Weather Roundup
Issued by NWS

Home | Current Version | Previous Version | Graphics & Text | Print | Product List | Glossary On
Versions: 1 2 3 4 5 6 7 8 9 10 11 12 13 14 15 16 17 18 19 20 21 22 23 24 25 26 27 28 29 30 31 32 33 34 35 36 37 38 39 40 41 42 43 44 45 46 47 48 49 50
000
ASUS43 KLOT 041808
RWRIL

ILLINOIS REGIONAL WEATHER ROUNDUP
NATIONAL WEATHER SERVICE CHICAGO/ROMEOVILLE IL
1200 PM CST SUN DEC 04 2016

NOTE: "FAIR" INDICATES FEW OR NO CLOUDS BELOW 12,000 FEET WITH NO
SIGNIFICANT WEATHER AND/OR OBSTRUCTIONS TO VISIBILITY.

* THESE STATIONS ARE NOT UNDER NWS QUALITY CONTROL. THEY ALSO MAY NOT
  REPORT WEATHER SUCH AS PRECIPITATION OR FOG.

ILZ001-002-007-009-015-016-024-041900-
NORTHWEST ILLINOIS

CITY           SKY/WX    TMP DP  RH WIND       PRES   REMARKS
MOLINE         HVY SNOW  32  30  92 SE5       29.98F VSB 1/4 WCI  27
6HR MIN TEMP:  32; 6HR MAX TEMP:  33; 6HR PCP:  0.41;

STERLING*      HVY SNOW  31  30  96 SE8       29.98F VSB 1/4 WCI  23
SAVANNA*       SNOW      31  30  96 S5        29.99F VSB 1/2 WCI  26
$$

ILZ003-004-008-010-011-017-018-041900-
NORTH CENTRAL ILLINOIS

CITY           SKY/WX    TMP DP  RH WIND       PRES   REMARKS
ROCKFORD       HVY SNOW  31  29  92 SE8       30.02F VSB 1/4 WCI  23
6HR MIN TEMP:  31; 6HR MAX TEMP:  32; 6HR PCP:  0.25;

FREEPORT*      LGT SNOW  30  29  96 SE12      29.99F VSB 3/4 WCI  20
ROCHELLE*      SNOW      30  29  96 SE6       30.01F VSB 1/2 WCI  24
DE KALB*       SNOW      31  30  96 SE7       30.00F VSB 1/2 WCI  24
$$

ILZ005-006-012>014-019>023-041900-
NORTHEAST ILLINOIS

CITY           SKY/WX    TMP DP  RH WIND       PRES   REMARKS
CHICAGO-OHARE  SNOW      31  30  96 SE5       30.03F VSB 1/4 WCI  26
6HR MIN TEMP:  31; 6HR MAX TEMP:  33; 6HR PCP:  0.08;

CHICAGO-MIDWAY LGT SNOW  32  29  88 SE3       30.03F VSB 3/4
6HR MIN TEMP:  32; 6HR MAX TEMP:  35; 6HR PCP:  0.04;

AURORA         HVY SNOW  32  30  92 E9        30.02F VSB 1/4 WCI  24
6HR MIN TEMP:  32; 6HR MAX TEMP:  33; 6HR PCP:  0.03;

LANSING*       SNOW      32  32 100 E5        30.03F VSB 1/2 WCI  27
JOLIET*        LGT SNOW  33  32  98 E3        30.02F VSB 1
WAUKEGAN       SNOW      33  32  96 CALM      30.01F VSB 1/4
6HR MIN TEMP:  32; 6HR MAX TEMP:  34; 6HR PCP:  0.05;

DUPAGE AIRPORT HVY SNOW  31  28  89 E5        30.00F VSB 1/4 WCI  26
6HR MIN TEMP:  31; 6HR MAX TEMP:  32; 6HR PCP:  0.09;

KANKAKEE*      LGT SNOW  32  32  98 E3        30.02F VSB 3/4
WHEELING       SNOW      31  30  96 CALM      30.04F VSB 1/4
6HR MIN TEMP:  31; 6HR MAX TEMP:  33; 6HR PCP:  0.09;

MORRIS*        SNOW      32  31  96 E3        30.01F VSB 1/2
ROMEOVILLE*    SNOW      31  31 100 E3        30.02F VSB 1/2
NORTHERLY ISL    N/A     33  30  89 SE3         N/A
$$

LMZ740>746-041900-
SOUTHERN LAKE MICHIGAN

STATION/POSITION SKY/WX   TEMP    WIND        PRES    VSBY  WAVE
                          AIR SEA DIR/SP/G                  HT/PER
                          (F)     (DEG/KT/KT) (MB)    (MI)  (FT/S)
SOUTHERN BUOY              38 48  140/ 14/ 16 1018.4          1/ 3
HARRISON CRIB              35     160/  8/ 10   N/A
BURNHAM HARBOR             33     170/  2/ 10   N/A
CALUMET HARBOR             33     170/  4/  5 1017.0F
BURNS HARBOR               34     150/  4/  7 1017.9F
$$

ILZ025>027-034>036-040-047-049-050-058-095>099-041900-
WEST-CENTRAL ILLINOIS

CITY           SKY/WX    TMP DP  RH WIND       PRES   REMARKS
QUINCY         SNOW      33  32  96 E5        29.96F VSB 1/4 WCI  29
GALESBURG*     LGT SNOW  32  32 100 E3        29.97F VSB 3/4
MACOMB*        LGT SNOW  32  32 100 SE5       30.01F VSB 1   WCI  28
JACKSONVILLE*  SNOW      32  32 100 N3        29.97F VSB 1/2
PITTSFIELD*    LGT SNOW  33  33 100 E3        29.97F
$$

ILZ028>032-037-038-041>044-048-051>054-059>061-041900-
CENTRAL ILLINOIS

CITY           SKY/WX    TMP DP  RH WIND       PRES   REMARKS
PONTIAC        SNOW      33  33 100 E5        30.00F VSB 1/2 WCI  28
BLOOMINGTON    SNOW      33  31  92 E6        29.98F VSB 1/2 WCI  28
DECATUR        LGT RAIN N/A N/A N/A E6        29.96F VSB 3/4
PEORIA         HVY SNOW  32  32 100 N3        30.00F VSB 1/4
6HR MIN TEMP:  32; 6HR MAX TEMP:  33; 6HR PCP:  0.20;

LACON*         SNOW      32  31  99 CALM      30.01F VSB 1/2
LINCOLN*       HVY RAIN  33  33 100 CALM      29.98F VSB 3/4
SPRINGFIELD    SNOW      34  32  92 N3        29.98F VSB 1/2
6HR MIN TEMP:  34; 6HR MAX TEMP:  35; 6HR PCP:  0.27;

TAYLORVILLE    LGT RAIN  34  33  96 CALM      29.96F
6HR MIN TEMP:  33; 6HR MAX TEMP:  35; 6HR PCP:  0.24;

$$

ILZ033-039-045-046-055>057-062-063-041900-
EAST-CENTRAL ILLINOIS

CITY           SKY/WX    TMP DP  RH WIND       PRES   REMARKS
CHAMPAIGN      RAIN      34  32  92 NE8       29.97F FOG     WCI  27
RANTOUL*       LGT SNOW  34  34  99 NE7       29.96F WCI  28
MATTOON        LGT RAIN  37  36  96 SE3       29.94F FOG
PARIS*         DRIZZLE   37  36  98 E6        29.96F WCI  32
$$

ILZ079-100>102-041900-
SOUTHWEST ILLINOIS

CITY           SKY/WX    TMP DP  RH WIND       PRES   REMARKS
ALTON          LGT RAIN  37  36  93 S5        29.97F WCI  34
BELLEVILLE     DRIZZLE   39  39 100 SW5       29.95F
CAHOKIA*       LGT RAIN  40  37  89 W6        29.97F FOG
SPARTA*        DRIZZLE   39  38  96 SW5       29.97F
$$

ILZ064>066-069>071-074>076-080>082-084>086-088>090-092>094-041900-
SOUTH-CENTRAL ILLINOIS

CITY           SKY/WX    TMP DP  RH WIND       PRES   REMARKS
CARBONDALE     CLOUDY    42  42 100 S9        29.96F FOG
6HR MIN TEMP:  39; 6HR MAX TEMP:  42; 6HR PCP:  0.08;

CAIRO*         CLOUDY    43  43  99 S3        29.98F FOG
EFFINGHAM*     RAIN      39  39 100 CALM      29.97F
MARION         DRZL/FOG  43  43 100 S8        29.97F VSB 1
CENTRALIA*     RAIN      40  40  99 S6        29.94F
SALEM*         LGT RAIN  40  38  93 S5        29.95F
METROPOLIS*    CLOUDY    43  42  96 CALM      29.99F FOG
$$

ILZ067-068-072-073-078-083-087-091-041900-
SOUTHEAST ILLINOIS

CITY           SKY/WX    TMP DP  RH WIND       PRES   REMARKS
LAWRENCEVILLE  LGT RAIN  42  39  89 S8        29.96F FOG
FLORA*         LGT RAIN  41  40  95 S7        29.96F
FAIRFIELD*     DRIZZLE   40  40 100 S5        29.95F
HARRISBURG*    DRIZZLE   42  42  99 S6        29.97F
ROBINSON*      DRIZZLE   39  38  93 SE10      29.97F WCI  33
CARMI*         DRIZZLE   42  41  99 S10       29.97F
$$

ABBREVIATIONS USED IN REMARKS
   TC - TEMPERATURE IN CELSIUS
  WCI - WIND CHILL INDEX
   HX - HEAT INDEX
  VSB - VISIBILITY
$$




USA.gov is the U.S. government's official web portal to all federal, state and local government web resources and services.